EZY511D LGSK-LIRN

Flight info

Callsign EZY511D
Flight time 1h 33m
Altitude 40000
Route EVIKO W58 AGH UV651 YNN UL613 VJOSA DCT GOKEL DCT ROBOT DCT LUXIL DCT TOPNO L995 EKTOL
Aircraft B736/M-SDE2E3FGHIRWXY/LB1

Departure

Time 2026-04-22 11:28
Airport Skiathos Island National Airport (LGSK)

Arrival

Time 2026-04-22 13:02
Airport Naples International Airport (LIRN)
Time Latitude Longitude Altitude Speed Heading
2026-04-22 11:07 39.17990 23.50271 38 ft 0 kts 289°
2026-04-22 11:21 39.17988 23.50279 38 ft 2 kts 289°
2026-04-22 11:21 39.17982 23.50299 38 ft 2 kts 289°
2026-04-22 11:21 39.17977 23.50320 37 ft 2 kts 290°
2026-04-22 11:22 39.17972 23.50340 37 ft 2 kts 271°
2026-04-22 11:22 39.17976 23.50360 39 ft 2 kts 224°
2026-04-22 11:22 39.17986 23.50370 38 ft 1 kts 204°
2026-04-22 11:22 39.17988 23.50370 38 ft 0 kts 202°
2026-04-22 11:24 39.17986 23.50369 38 ft 1 kts 203°
2026-04-22 11:24 39.17968 23.50361 39 ft 6 kts 200°
2026-04-22 11:24 39.17914 23.50337 39 ft 10 kts 198°
2026-04-22 11:25 39.17838 23.50303 38 ft 13 kts 200°
2026-04-22 11:25 39.17750 23.50265 38 ft 9 kts 198°
2026-04-22 11:25 39.17704 23.50301 39 ft 9 kts 112°
2026-04-22 11:25 39.17655 23.50338 40 ft 9 kts 184°
2026-04-22 11:26 39.17585 23.50311 40 ft 12 kts 199°
2026-04-22 11:26 39.17493 23.50271 38 ft 16 kts 199°
2026-04-22 11:26 39.17371 23.50217 33 ft 22 kts 199°
2026-04-22 11:26 39.17199 23.50140 22 ft 29 kts 199°
2026-04-22 11:27 39.17093 23.50092 17 ft 11 kts 201°
2026-04-22 11:27 39.17023 23.50043 9 ft 11 kts 155°
2026-04-22 11:27 39.17053 23.50089 14 ft 10 kts 349°
2026-04-22 11:27 39.17123 23.50108 19 ft 12 kts 20°
2026-04-22 11:28 39.17420 23.50240 36 ft 86 kts 19°
2026-04-22 11:28 39.18232 23.50605 73 ft 155 kts 21°
2026-04-22 11:28 39.19271 23.51064 979 ft 157 kts 19°
2026-04-22 11:28 39.20277 23.51500 1984 ft 151 kts 22°
2026-04-22 11:29 39.21290 23.51950 2614 ft 156 kts 20°
2026-04-22 11:29 39.22329 23.52413 3303 ft 161 kts 18°
2026-04-22 11:29 39.23481 23.52923 3650 ft 191 kts 17°
2026-04-22 11:29 39.24820 23.53517 4069 ft 210 kts 17°
2026-04-22 11:30 39.26093 23.54529 4630 ft 224 kts 42°
2026-04-22 11:30 39.27004 23.56158 5422 ft 229 kts 62°
2026-04-22 11:30 39.27672 23.58046 6291 ft 233 kts 74°
2026-04-22 11:30 39.27617 23.60145 7013 ft 240 kts 110°
2026-04-22 11:31 39.27008 23.62147 7862 ft 240 kts 121°
2026-04-22 11:31 39.25837 23.63615 8598 ft 235 kts 160°
2026-04-22 11:31 39.24277 23.64083 9401 ft 229 kts 185°
2026-04-22 11:31 39.22726 23.63755 10171 ft 225 kts 202°
2026-04-22 11:32 39.21238 23.63108 10919 ft 227 kts 205°
2026-04-22 11:32 39.19767 23.62358 11680 ft 226 kts 217°
2026-04-22 11:32 39.18689 23.60969 12443 ft 218 kts 243°
2026-04-22 11:32 39.18197 23.59064 12803 ft 238 kts 267°
2026-04-22 11:33 39.18210 23.56820 13045 ft 264 kts 274°
2026-04-22 11:33 39.18347 23.54394 13628 ft 276 kts 275°
2026-04-22 11:33 39.18492 23.51903 14422 ft 279 kts 274°
2026-04-22 11:33 39.18622 23.49409 15328 ft 279 kts 274°
2026-04-22 11:34 39.18740 23.46942 16233 ft 280 kts 274°
2026-04-22 11:34 39.18858 23.44393 17093 ft 283 kts 274°
2026-04-22 11:34 39.18975 23.41857 17684 ft 296 kts 274°
2026-04-22 11:34 39.19102 23.39096 17847 ft 320 kts 274°
2026-04-22 11:35 39.19238 23.36132 18022 ft 342 kts 274°
2026-04-22 11:35 39.19379 23.32987 18263 ft 359 kts 274°
2026-04-22 11:35 39.19524 23.29739 18753 ft 366 kts 274°
2026-04-22 11:35 39.19668 23.26460 19441 ft 367 kts 274°
2026-04-22 11:36 39.19812 23.23165 20087 ft 369 kts 274°
2026-04-22 11:36 39.19958 23.19839 20666 ft 374 kts 274°
2026-04-22 11:36 39.20104 23.16483 21272 ft 376 kts 274°
2026-04-22 11:36 39.20250 23.13095 21854 ft 380 kts 274°
2026-04-22 11:37 39.20396 23.09677 22420 ft 383 kts 274°
2026-04-22 11:37 39.20544 23.06223 22995 ft 387 kts 274°
2026-04-22 11:37 39.20691 23.02748 23558 ft 390 kts 274°
2026-04-22 11:37 39.20836 22.99287 24039 ft 393 kts 274°
2026-04-22 11:38 39.20984 22.95755 24572 ft 395 kts 274°
2026-04-22 11:38 39.21131 22.92210 25109 ft 397 kts 274°
2026-04-22 11:38 39.21424 22.85062 26071 ft 401 kts 274°
2026-04-22 11:39 39.21593 22.81461 26519 ft 403 kts 276°
2026-04-22 11:39 39.22046 22.77875 26952 ft 406 kts 283°
2026-04-22 11:39 39.22880 22.74392 27407 ft 407 kts 288°
2026-04-22 11:39 39.23790 22.70914 27845 ft 409 kts 288°
2026-04-22 11:40 39.24696 22.67435 28328 ft 409 kts 288°
2026-04-22 11:40 39.25592 22.63960 28995 ft 406 kts 287°
2026-04-22 11:40 39.26461 22.60562 29758 ft 401 kts 287°
2026-04-22 11:40 39.27325 22.57155 30367 ft 398 kts 287°
2026-04-22 11:41 39.28184 22.53755 30859 ft 397 kts 287°
2026-04-22 11:41 39.28967 22.50652 31321 ft 396 kts 287°
2026-04-22 11:41 39.29815 22.47287 31875 ft 393 kts 287°
2026-04-22 11:41 39.30659 22.43936 32398 ft 391 kts 287°
2026-04-22 11:42 39.31498 22.40599 32903 ft 390 kts 287°
2026-04-22 11:42 39.32331 22.37279 33425 ft 388 kts 287°
2026-04-22 11:42 39.33160 22.33974 33919 ft 385 kts 287°
2026-04-22 11:42 39.33986 22.30673 34303 ft 385 kts 287°
2026-04-22 11:43 39.34799 22.27422 34594 ft 386 kts 287°
2026-04-22 11:43 39.35623 22.24117 34888 ft 387 kts 287°
2026-04-22 11:43 39.36448 22.20810 35235 ft 386 kts 287°
2026-04-22 11:43 39.37271 22.17501 35561 ft 386 kts 287°
2026-04-22 11:44 39.38094 22.14190 35841 ft 387 kts 287°
2026-04-22 11:44 39.38918 22.10874 36121 ft 387 kts 287°
2026-04-22 11:44 39.39740 22.07559 36419 ft 387 kts 287°
2026-04-22 11:44 39.40559 22.04249 36686 ft 387 kts 287°
2026-04-22 11:45 39.41379 22.00931 36942 ft 388 kts 287°
2026-04-22 11:45 39.42200 21.97605 37222 ft 387 kts 287°
2026-04-22 11:45 39.43018 21.94289 37493 ft 387 kts 287°
2026-04-22 11:45 39.43837 21.90963 37745 ft 388 kts 287°
2026-04-22 11:46 39.44653 21.87641 37999 ft 388 kts 287°
2026-04-22 11:46 39.45470 21.84317 38258 ft 388 kts 287°
2026-04-22 11:46 39.46285 21.80990 38522 ft 387 kts 287°
2026-04-22 11:46 39.47097 21.77673 38828 ft 385 kts 287°
2026-04-22 11:47 39.47894 21.74417 39063 ft 384 kts 287°
2026-04-22 11:47 39.48700 21.71113 39157 ft 386 kts 287°
2026-04-22 11:47 39.49511 21.67788 39288 ft 387 kts 287°
2026-04-22 11:47 39.50321 21.64459 39488 ft 387 kts 287°
2026-04-22 11:48 39.51129 21.61136 39652 ft 387 kts 287°
2026-04-22 11:48 39.51941 21.57792 39807 ft 388 kts 287°
2026-04-22 11:48 39.52753 21.54444 39945 ft 389 kts 287°
2026-04-22 11:48 39.53567 21.51080 39965 ft 393 kts 287°
2026-04-22 11:49 39.55214 21.44261 39968 ft 400 kts 287°
2026-04-22 11:49 39.56881 21.37338 39981 ft 405 kts 287°
2026-04-22 11:50 39.58567 21.30320 39968 ft 408 kts 287°
2026-04-22 11:50 39.60238 21.23341 39977 ft 409 kts 287°
2026-04-22 11:51 39.61919 21.16305 39987 ft 407 kts 287°
2026-04-22 11:51 39.63589 21.09288 39993 ft 405 kts 287°
2026-04-22 11:52 39.65247 21.02295 39999 ft 406 kts 287°
2026-04-22 11:52 39.66904 20.95291 39992 ft 406 kts 287°
2026-04-22 11:53 39.68556 20.88294 39992 ft 405 kts 287°
2026-04-22 11:53 39.70766 20.81599 39994 ft 405 kts 298°
2026-04-22 11:54 39.74136 20.75725 40004 ft 407 kts 307°
2026-04-22 11:54 39.77846 20.70167 39993 ft 407 kts 308°
2026-04-22 11:55 39.80916 20.65545 39991 ft 406 kts 307°
2026-04-22 11:55 39.84591 20.59962 39969 ft 406 kts 307°
2026-04-22 11:56 39.88847 20.53464 39957 ft 405 kts 307°
2026-04-22 11:56 39.91915 20.48769 39941 ft 405 kts 307°
2026-04-22 11:57 39.95565 20.43179 39945 ft 404 kts 307°
2026-04-22 11:57 39.99039 20.37428 39925 ft 403 kts 299°
2026-04-22 11:58 40.01852 20.31181 39946 ft 402 kts 298°
2026-04-22 11:58 40.04669 20.24865 39941 ft 402 kts 298°
2026-04-22 11:59 40.07492 20.18565 39937 ft 401 kts 298°
2026-04-22 11:59 40.10307 20.12296 39933 ft 400 kts 298°
2026-04-22 12:00 40.13117 20.06034 39926 ft 399 kts 298°
2026-04-22 12:00 40.15917 19.99780 39945 ft 399 kts 298°
2026-04-22 12:01 40.18723 19.93502 39939 ft 399 kts 298°
2026-04-22 12:01 40.21502 19.87270 39945 ft 399 kts 298°
2026-04-22 12:02 40.24298 19.80988 39958 ft 400 kts 298°
2026-04-22 12:02 40.27098 19.74683 39949 ft 401 kts 298°
2026-04-22 12:03 40.29898 19.68368 39951 ft 400 kts 298°
2026-04-22 12:03 40.32691 19.62054 39942 ft 399 kts 298°
2026-04-22 12:04 40.35452 19.55799 39944 ft 398 kts 298°
2026-04-22 12:04 40.38223 19.49509 39955 ft 398 kts 298°
2026-04-22 12:05 40.40993 19.43208 39961 ft 398 kts 297°
2026-04-22 12:05 40.43757 19.36908 39968 ft 398 kts 297°
2026-04-22 12:06 40.46517 19.30604 39984 ft 398 kts 297°
2026-04-22 12:06 40.49273 19.24296 39982 ft 398 kts 297°
2026-04-22 12:07 40.52014 19.18009 39991 ft 398 kts 297°
2026-04-22 12:07 40.54764 19.11690 39987 ft 398 kts 297°
2026-04-22 12:08 40.57511 19.05365 39992 ft 398 kts 297°
2026-04-22 12:08 40.59653 18.98690 40002 ft 395 kts 285°
2026-04-22 12:09 40.60559 18.91558 40004 ft 396 kts 277°
2026-04-22 12:09 40.61097 18.84343 40013 ft 396 kts 276°
2026-04-22 12:10 40.61635 18.77130 40009 ft 396 kts 277°
2026-04-22 12:10 40.62179 18.69958 40014 ft 396 kts 277°
2026-04-22 12:11 40.62731 18.62734 40015 ft 396 kts 277°
2026-04-22 12:11 40.63279 18.55514 40010 ft 396 kts 277°
2026-04-22 12:12 40.63823 18.48287 40014 ft 396 kts 277°
2026-04-22 12:12 40.64360 18.41106 40013 ft 396 kts 277°
2026-04-22 12:13 40.64894 18.33887 40021 ft 396 kts 276°
2026-04-22 12:13 40.65424 18.26666 40025 ft 396 kts 276°
2026-04-22 12:14 40.65950 18.19436 40022 ft 396 kts 276°
2026-04-22 12:14 40.66472 18.12199 40024 ft 396 kts 276°
2026-04-22 12:15 40.66989 18.04969 40018 ft 396 kts 276°
2026-04-22 12:15 40.67502 17.97733 40021 ft 396 kts 276°
2026-04-22 12:16 40.68007 17.90544 40023 ft 397 kts 276°
2026-04-22 12:16 40.68511 17.83302 40020 ft 397 kts 276°
2026-04-22 12:17 40.69010 17.76062 40018 ft 397 kts 276°
2026-04-22 12:17 40.69506 17.68811 40027 ft 397 kts 276°
2026-04-22 12:18 40.69996 17.61566 40014 ft 397 kts 276°
2026-04-22 12:18 40.70483 17.54321 40009 ft 397 kts 276°
2026-04-22 12:19 40.70999 17.47070 40006 ft 397 kts 279°
2026-04-22 12:19 40.72211 17.39996 40009 ft 396 kts 284°
2026-04-22 12:20 40.73544 17.32953 40012 ft 396 kts 284°
2026-04-22 12:20 40.74849 17.25941 40043 ft 396 kts 284°
2026-04-22 12:21 40.76147 17.18883 40048 ft 396 kts 284°
2026-04-22 12:21 40.77438 17.11814 40049 ft 396 kts 284°
2026-04-22 12:22 40.78724 17.04744 40047 ft 396 kts 284°
2026-04-22 12:22 40.80008 16.97660 40050 ft 396 kts 284°
2026-04-22 12:23 40.81286 16.90590 40048 ft 396 kts 284°
2026-04-22 12:23 40.82554 16.83517 40050 ft 396 kts 283°
2026-04-22 12:24 40.83801 16.76446 40049 ft 395 kts 283°
2026-04-22 12:24 40.85044 16.69368 40050 ft 395 kts 283°
2026-04-22 12:25 40.86283 16.62293 40051 ft 395 kts 283°
2026-04-22 12:25 40.87511 16.55259 40050 ft 395 kts 283°
2026-04-22 12:26 40.88741 16.48184 40048 ft 395 kts 283°
2026-04-22 12:26 40.89967 16.41110 40060 ft 395 kts 283°
2026-04-22 12:27 40.91192 16.34011 40054 ft 395 kts 283°
2026-04-22 12:27 40.92399 16.26985 40055 ft 392 kts 283°
2026-04-22 12:28 40.93595 16.20000 40058 ft 387 kts 283°
2026-04-22 12:28 40.94785 16.13031 39427 ft 390 kts 283°
2026-04-22 12:29 40.95378 16.09545 38891 ft 386 kts 283°
2026-04-22 12:29 40.95965 16.06097 38036 ft 386 kts 283°
2026-04-22 12:29 40.96553 16.02636 37267 ft 383 kts 284°
2026-04-22 12:29 40.97134 15.99218 36569 ft 380 kts 284°
2026-04-22 12:30 40.98287 15.92416 35060 ft 378 kts 286°
2026-04-22 12:30 40.98861 15.89017 34236 ft 378 kts 287°
2026-04-22 12:30 40.99428 15.85660 33306 ft 379 kts 287°
2026-04-22 12:31 41.00008 15.82221 32403 ft 378 kts 286°
2026-04-22 12:31 41.00572 15.78868 31507 ft 378 kts 286°
2026-04-22 12:31 41.01151 15.75418 30535 ft 380 kts 285°
2026-04-22 12:31 41.01724 15.71997 29442 ft 381 kts 285°
2026-04-22 12:32 41.02296 15.68571 28416 ft 380 kts 285°
2026-04-22 12:32 41.03417 15.61850 26876 ft 370 kts 285°
2026-04-22 12:32 41.03967 15.58542 26148 ft 365 kts 284°
2026-04-22 12:33 41.04511 15.55271 25454 ft 361 kts 284°
2026-04-22 12:33 41.05048 15.52039 24745 ft 358 kts 284°
2026-04-22 12:33 41.05579 15.48833 24073 ft 353 kts 284°
2026-04-22 12:33 41.06104 15.45659 23335 ft 353 kts 284°
2026-04-22 12:34 41.06628 15.42488 22567 ft 352 kts 284°
2026-04-22 12:34 41.07145 15.39352 21863 ft 354 kts 284°
2026-04-22 12:34 41.07675 15.36133 21159 ft 361 kts 284°
2026-04-22 12:34 41.08207 15.32892 20447 ft 358 kts 284°
2026-04-22 12:35 41.08732 15.29690 19762 ft 352 kts 284°
2026-04-22 12:35 41.09247 15.26534 19087 ft 348 kts 284°
2026-04-22 12:35 41.09757 15.23409 18440 ft 344 kts 284°
2026-04-22 12:35 41.10241 15.20301 17683 ft 343 kts 281°
2026-04-22 12:36 41.10233 15.17134 17031 ft 346 kts 266°
2026-04-22 12:36 41.09655 15.14083 16845 ft 341 kts 254°
2026-04-22 12:36 41.08638 15.11189 16671 ft 355 kts 250°
2026-04-22 12:36 41.07507 15.08266 16436 ft 362 kts 248°
2026-04-22 12:37 41.06357 15.05352 16204 ft 349 kts 248°
2026-04-22 12:37 41.05264 15.02559 16008 ft 334 kts 249°
2026-04-22 12:37 41.04229 14.99869 15808 ft 322 kts 249°
2026-04-22 12:37 41.03239 14.97272 15627 ft 310 kts 250°
2026-04-22 12:38 41.02286 14.94769 15450 ft 299 kts 250°
2026-04-22 12:38 41.01364 14.92345 15266 ft 290 kts 250°
2026-04-22 12:38 41.00470 14.90001 15120 ft 282 kts 250°
2026-04-22 12:38 40.99593 14.87699 14966 ft 279 kts 250°
2026-04-22 12:39 40.98720 14.85406 14817 ft 280 kts 250°
2026-04-22 12:39 40.96940 14.80731 14475 ft 287 kts 249°
2026-04-22 12:39 40.96039 14.78373 14316 ft 288 kts 249°
2026-04-22 12:40 40.95133 14.76004 14139 ft 289 kts 249°
2026-04-22 12:40 40.94227 14.73639 13958 ft 288 kts 249°
2026-04-22 12:40 40.93324 14.71285 13794 ft 286 kts 249°
2026-04-22 12:40 40.92426 14.68947 13597 ft 284 kts 249°
2026-04-22 12:41 40.91546 14.66657 13426 ft 282 kts 249°
2026-04-22 12:41 40.90661 14.64353 13277 ft 280 kts 249°
2026-04-22 12:41 40.89780 14.62059 13108 ft 280 kts 249°
2026-04-22 12:41 40.88896 14.59761 12938 ft 280 kts 249°
2026-04-22 12:42 40.88012 14.57463 12772 ft 280 kts 249°
2026-04-22 12:42 40.87127 14.55167 12610 ft 280 kts 248°
2026-04-22 12:42 40.86241 14.52868 12448 ft 281 kts 248°
2026-04-22 12:42 40.85351 14.50564 12292 ft 281 kts 248°
2026-04-22 12:43 40.84762 14.49041 12170 ft 282 kts 248°
2026-04-22 12:43 40.83869 14.46737 12010 ft 281 kts 248°
2026-04-22 12:43 40.82979 14.44441 11833 ft 280 kts 249°
2026-04-22 12:43 40.82094 14.42160 11705 ft 279 kts 248°
2026-04-22 12:44 40.81206 14.39867 11533 ft 281 kts 248°
2026-04-22 12:44 40.80313 14.37568 11372 ft 281 kts 248°
2026-04-22 12:44 40.79430 14.35295 11225 ft 282 kts 248°
2026-04-22 12:44 40.78533 14.32990 11035 ft 281 kts 248°
2026-04-22 12:45 40.77531 14.30782 10862 ft 281 kts 241°
2026-04-22 12:45 40.76414 14.28685 10686 ft 278 kts 240°
2026-04-22 12:45 40.75284 14.26616 10518 ft 276 kts 240°
2026-04-22 12:45 40.74162 14.24554 10355 ft 278 kts 240°
2026-04-22 12:46 40.73041 14.22476 10161 ft 277 kts 240°
2026-04-22 12:46 40.71936 14.20415 9968 ft 272 kts 240°
2026-04-22 12:46 40.70858 14.18396 9782 ft 266 kts 240°
2026-04-22 12:46 40.69817 14.16448 9579 ft 253 kts 240°
2026-04-22 12:47 40.68829 14.14600 9416 ft 241 kts 241°
2026-04-22 12:47 40.67883 14.12828 9275 ft 232 kts 241°
2026-04-22 12:47 40.66962 14.11090 9145 ft 233 kts 241°
2026-04-22 12:47 40.66021 14.09314 9013 ft 240 kts 241°
2026-04-22 12:48 40.65055 14.07498 8849 ft 244 kts 240°
2026-04-22 12:48 40.64091 14.05691 8692 ft 244 kts 240°
2026-04-22 12:48 40.63120 14.03874 8527 ft 241 kts 240°
2026-04-22 12:48 40.62165 14.02090 8368 ft 236 kts 240°
2026-04-22 12:49 40.61224 14.00333 8199 ft 233 kts 240°
2026-04-22 12:49 40.60289 13.98589 8067 ft 234 kts 240°
2026-04-22 12:49 40.59348 13.96832 7931 ft 236 kts 240°
2026-04-22 12:49 40.58389 13.95042 7773 ft 239 kts 240°
2026-04-22 12:50 40.57430 13.93255 7621 ft 239 kts 240°
2026-04-22 12:50 40.56471 13.91469 7466 ft 238 kts 240°
2026-04-22 12:50 40.55527 13.89712 7318 ft 238 kts 240°
2026-04-22 12:50 40.54763 13.87876 7152 ft 218 kts 261°
2026-04-22 12:51 40.54751 13.85968 7045 ft 206 kts 286°
2026-04-22 12:51 40.55312 13.84249 6922 ft 206 kts 305°
2026-04-22 12:51 40.56317 13.82900 6800 ft 210 kts 321°
2026-04-22 12:51 40.57514 13.81765 6665 ft 214 kts 324°
2026-04-22 12:52 40.58737 13.80648 6523 ft 214 kts 324°
2026-04-22 12:52 40.60054 13.79749 6363 ft 217 kts 345°
2026-04-22 12:52 40.61563 13.79786 6225 ft 223 kts 12°
2026-04-22 12:52 40.62920 13.80796 6076 ft 231 kts 40°
2026-04-22 12:53 40.63944 13.82441 5946 ft 233 kts 50°
2026-04-22 12:53 40.64877 13.84199 5775 ft 234 kts 51°
2026-04-22 12:53 40.65777 13.85914 5624 ft 219 kts 51°
2026-04-22 12:53 40.66631 13.87538 5488 ft 214 kts 51°
2026-04-22 12:54 40.67488 13.89154 5351 ft 215 kts 51°
2026-04-22 12:54 40.68341 13.90754 5211 ft 213 kts 51°
2026-04-22 12:54 40.69205 13.92370 5085 ft 217 kts 51°
2026-04-22 12:54 40.70081 13.94006 4935 ft 220 kts 51°
2026-04-22 12:55 40.70962 13.95655 4807 ft 220 kts 52°
2026-04-22 12:55 40.71844 13.97300 4649 ft 219 kts 51°
2026-04-22 12:55 40.72714 13.98917 4530 ft 219 kts 51°
2026-04-22 12:55 40.73595 14.00560 4380 ft 219 kts 52°
2026-04-22 12:56 40.74472 14.02194 4243 ft 217 kts 52°
2026-04-22 12:56 40.75333 14.03819 4108 ft 214 kts 53°
2026-04-22 12:56 40.76184 14.05430 4003 ft 214 kts 53°
2026-04-22 12:56 40.77035 14.07033 3813 ft 211 kts 53°
2026-04-22 12:57 40.77861 14.08590 3606 ft 204 kts 53°
2026-04-22 12:57 40.78663 14.10097 3450 ft 195 kts 53°
2026-04-22 12:57 40.79417 14.11516 3322 ft 183 kts 53°
2026-04-22 12:57 40.80135 14.12865 3201 ft 176 kts 54°
2026-04-22 12:58 40.80836 14.14156 3085 ft 176 kts 53°
2026-04-22 12:58 40.81540 14.15457 2956 ft 171 kts 54°
2026-04-22 12:58 40.82216 14.16733 2710 ft 168 kts 54°
2026-04-22 12:58 40.82868 14.17966 2437 ft 157 kts 55°
2026-04-22 12:59 40.83466 14.19100 2216 ft 147 kts 55°
2026-04-22 12:59 40.84030 14.20173 2000 ft 136 kts 54°
2026-04-22 12:59 40.84538 14.21133 1788 ft 120 kts 54°
2026-04-22 12:59 40.85017 14.22039 1618 ft 123 kts 54°
2026-04-22 13:00 40.85530 14.23009 1404 ft 132 kts 53°
2026-04-22 13:00 40.86059 14.24012 1212 ft 133 kts 54°
2026-04-22 13:00 40.86589 14.25013 1006 ft 132 kts 53°
2026-04-22 13:00 40.87121 14.25987 721 ft 129 kts 52°
2026-04-22 13:01 40.87602 14.26972 555 ft 129 kts 54°
2026-04-22 13:01 40.88086 14.27984 337 ft 130 kts 58°
2026-04-22 13:01 40.88534 14.28922 270 ft 105 kts 58°
2026-04-22 13:01 40.88838 14.29574 253 ft 62 kts 59°
2026-04-22 13:02 40.88988 14.29891 243 ft 19 kts 58°
2026-04-22 13:02 40.89043 14.30009 240 ft 21 kts 58°
2026-04-22 13:02 40.89034 14.30138 237 ft 16 kts 146°
2026-04-22 13:02 40.88942 14.30155 238 ft 14 kts 234°
2026-04-22 13:03 40.88885 14.30058 242 ft 13 kts 235°
2026-04-22 13:03 40.88830 14.29962 245 ft 13 kts 232°
2026-04-22 13:03 40.88776 14.29869 248 ft 13 kts 233°
2026-04-22 13:03 40.88724 14.29781 251 ft 12 kts 232°
2026-04-22 13:04 40.88674 14.29693 254 ft 12 kts 233°
2026-04-22 13:04 40.88623 14.29604 257 ft 13 kts 232°
2026-04-22 13:04 40.88567 14.29509 259 ft 14 kts 233°
2026-04-22 13:04 40.88500 14.29392 263 ft 18 kts 232°
2026-04-22 13:05 40.88413 14.29242 267 ft 22 kts 232°
2026-04-22 13:05 40.88316 14.29074 271 ft 24 kts 233°
2026-04-22 13:05 40.88219 14.28906 275 ft 23 kts 233°
2026-04-22 13:05 40.88125 14.28745 279 ft 22 kts 232°
2026-04-22 13:06 40.88035 14.28587 283 ft 21 kts 231°
2026-04-22 13:06 40.87940 14.28451 286 ft 17 kts 247°
2026-04-22 13:06 40.87949 14.28300 292 ft 16 kts 277°
2026-04-22 13:06 40.87962 14.28156 292 ft 15 kts 275°
2026-04-22 13:07 40.87923 14.28079 294 ft 7 kts 180°
2026-04-22 13:07 40.87885 14.28113 293 ft 7 kts 141°
2026-04-22 13:07 40.87866 14.28133 295 ft 0 kts 141°